Location: Unspecified
(0.0000°N, 0.0000°E)
Time: 15:13:32
(UTC+00:00)

DELTA 1 DEB - Visible Passes

Search period start: 15 June 2025 00:00
Search period end: 25 June 2025 00:00
Orbit: 1070 x 1523 km, 105.8° (Epoch: 15 April)

Date Brightness Start Highest point End Pass type
(mag) Time Alt. Az. Time Alt. Az. Time Alt. Az.
15 Jun ? 03:03:52 10° NNE 03:09:47 56° E 03:09:47 56° E visible
15 Jun ? 04:55:55 10° NW 04:59:30 15° WNW 05:01:23 13° W visible
16 Jun ? 03:13:55 10° NNE 03:20:23 68° E 03:20:23 68° E visible
16 Jun ? 05:07:20 10° NW 05:09:40 12° WNW 05:11:58 10° W visible
17 Jun ? 03:24:01 10° NNE 03:30:56 81° ESE 03:30:57 81° ESE visible
18 Jun ? 03:34:09 10° NNE 03:41:06 86° WNW 03:41:33 80° SW visible
19 Jun ? 02:00:24 10° E 02:00:33 10° E 02:00:33 10° E visible
19 Jun ? 03:44:21 10° NNE 03:51:17 74° WNW 03:52:08 67° WSW visible
20 Jun ? 02:09:13 10° E 02:11:09 14° E 02:11:09 14° E visible
20 Jun ? 03:54:36 10° N 04:01:27 63° WNW 04:02:44 55° WSW visible
21 Jun ? 02:18:29 10° ENE 02:21:44 18° E 02:21:44 18° E visible
21 Jun ? 04:04:53 10° N 04:11:38 53° WNW 04:13:20 45° WSW visible
22 Jun ? 02:27:57 10° ENE 02:32:20 22° ESE 02:32:20 22° ESE visible
22 Jun ? 04:15:13 10° N 04:21:49 45° WNW 04:23:55 37° WSW visible
23 Jun ? 02:37:35 10° ENE 02:42:56 26° ESE 02:42:56 26° ESE visible
23 Jun ? 04:25:37 10° N 04:32:00 38° WNW 04:34:32 30° WSW visible
24 Jun ? 02:47:19 10° NE 02:53:32 32° ESE 02:53:32 32° ESE visible
24 Jun ? 04:36:05 10° N 04:42:12 32° WNW 04:45:08 25° WSW visible
